| time (UTC) | temp F | wind direction | speed MPH | gust MPH | rain 1hr in | rain 24hr in | rain mn in | humidity % | barometer mb |
| 20260502164030 | 61 | 309 | 2.0 | 7.0 | 0.00 | 0.00 | 0.00 | 66 | 1012.6 |
| 20260502163530 | 61 | 244 | 3.0 | 5.0 | 0.00 | 0.00 | 0.00 | 66 | 1012.6 |
| 20260502163036 | 61 | 291 | 1.0 | 5.0 | 0.00 | 0.00 | 0.00 | 67 | 1012.7 |
| 20260502162531 | 61 | 345 | 2.0 | 5.0 | 0.00 | 0.00 | 0.00 | 66 | 1012.6 |
| 20260502162030 | 60 | 299 | 2.0 | 5.0 | 0.00 | 0.00 | 0.00 | 66 | 1012.6 |
| 20260502161536 | 61 | 281 | 2.0 | 6.0 | 0.00 | 0.00 | 0.00 | 65 | 1012.6 |
| 20260502161030 | 61 | 224 | 3.0 | 9.0 | 0.00 | 0.00 | 0.00 | 64 | 1012.5 |
| 20260502160534 | 61 | 286 | 3.0 | 9.0 | 0.00 | 0.00 | 0.00 | 63 | 1012.7 |
| 20260502152031 | 60 | 278 | 2.0 | 8.0 | 0.00 | 0.00 | 0.00 | 71 | 1012.7 |
| 20260502151546 | 60 | 305 | 2.0 | 8.0 | 0.00 | 0.00 | 0.00 | 72 | 1012.9 |
| 20260502151031 | 60 | 78 | 1.0 | 6.0 | 0.00 | 0.00 | 0.00 | 73 | 1012.9 |
| 20260502150530 | 59 | 314 | 0.0 | 4.0 | 0.00 | 0.00 | 0.00 | 73 | 1013.0 |
| 20260502130530 | 57 | 301 | 2.0 | 10.0 | 0.00 | 0.00 | 0.00 | 78 | 1013.8 |
| 20260502123532 | 58 | 288 | 3.0 | 6.0 | 0.00 | 0.00 | 0.00 | 77 | 1014.0 |
| 20260502123048 | 57 | 270 | 3.0 | 6.0 | 0.00 | 0.00 | 0.00 | 77 | 1014.0 |
| 20260502122530 | 57 | 309 | 3.0 | 6.0 | 0.00 | 0.00 | 0.00 | 78 | 1014.0 |
| 20260502122033 | 57 | 244 | 2.0 | 5.0 | 0.00 | 0.00 | 0.00 | 78 | 1014.1 |
| 20260502121550 | 57 | 284 | 2.0 | 6.0 | 0.00 | 0.00 | 0.00 | 79 | 1014.1 |
| 20260502121030 | 56 | 245 | 2.0 | 7.0 | 0.00 | 0.00 | 0.00 | 79 | 1014.1 |
| 20260502120530 | 56 | 288 | 3.0 | 8.0 | 0.00 | 0.00 | 0.00 | 79 | 1014.2 |
| 20260502115531 | 57 | 278 | 1.0 | 4.0 | 0.00 | 0.00 | 0.00 | 79 | 1014.4 |
| 20260502115032 | 56 | 44 | 1.0 | 5.0 | 0.00 | 0.00 | 0.00 | 79 | 1014.3 |
| 20260502114536 | 56 | 255 | 1.0 | 5.0 | 0.00 | 0.00 | 0.00 | 80 | 1014.4 |
| 20260502114031 | 56 | 293 | 2.0 | 5.0 | 0.00 | 0.00 | 0.00 | 79 | 1014.3 |
| 20260502113531 | 56 | 264 | 1.0 | 6.0 | 0.00 | 0.00 | 0.00 | 79 | 1014.4 |
| 20260502113038 | 56 | 202 | 2.0 | 6.0 | 0.00 | 0.00 | 0.00 | 80 | 1014.5 |
| 20260502112530 | 56 | 277 | 1.0 | 6.0 | 0.00 | 0.00 | 0.00 | 80 | 1014.4 |
| 20260502112031 | 56 | 280 | 3.0 | 8.0 | 0.00 | 0.00 | 0.00 | 80 | 1014.4 |
| 20260502111549 | 55 | 286 | 2.0 | 8.0 | 0.00 | 0.00 | 0.00 | 80 | 1014.5 |
| 20260502111032 | 55 | 266 | 3.0 | 7.0 | 0.00 | 0.00 | 0.00 | 80 | 1014.4 |
| 20260502110532 | 55 | 283 | 2.0 | 7.0 | 0.00 | 0.00 | 0.00 | 80 | 1014.4 |
| 20260502110042 | 55 | 255 | 2.0 | 7.0 | 0.00 | 0.00 | 0.00 | 80 | 1014.5 |
| 20260502105532 | 55 | 293 | 2.0 | 5.0 | 0.00 | 0.00 | 0.00 | 80 | 1014.4 |
| 20260502105033 | 55 | 278 | 2.0 | 5.0 | 0.00 | 0.00 | 0.00 | 80 | 1014.5 |
| 20260502104539 | 55 | 297 | 2.0 | 5.0 | 0.00 | 0.00 | 0.00 | 81 | 1014.5 |
| 20260502104032 | 55 | 276 | 2.0 | 5.0 | 0.00 | 0.00 | 0.00 | 81 | 1014.5 |
| 20260502103532 | 55 | 285 | 1.0 | 6.0 | 0.00 | 0.00 | 0.00 | 81 | 1014.4 |
| 20260502103059 | 55 | 282 | 2.0 | 6.0 | 0.00 | 0.00 | 0.00 | 81 | 1014.5 |
| 20260502102534 | 55 | 288 | 2.0 | 5.0 | 0.00 | 0.00 | 0.00 | 81 | 1014.7 |
| 20260502102033 | 55 | 316 | 2.0 | 5.0 | 0.00 | 0.00 | 0.00 | 81 | 1014.5 |
| 20260502101542 | 55 | 0 | 1.0 | 3.0 | 0.00 | 0.00 | 0.00 | 81 | 1014.5 |
| 20260502101032 | 55 | 235 | 0.0 | 4.0 | 0.00 | 0.00 | 0.00 | 81 | 1014.5 |
| 20260502100532 | 55 | 157 | 1.0 | 7.0 | 0.00 | 0.00 | 0.00 | 81 | 1014.5 |
| 20260502091031 | 54 | 290 | 0.0 | 3.0 | 0.00 | 0.00 | 0.00 | 83 | 1014.5 |
| 20260502090530 | 54 | 309 | 0.0 | 4.0 | 0.00 | 0.00 | 0.00 | 83 | 1014.5 |
| 20260502071031 | 52 | 205 | 0.0 | 2.0 | 0.00 | 0.02 | 0.00 | 84 | 1014.2 |
| 20260502070531 | 51 | 0 | 0.0 | 2.0 | 0.00 | 0.02 | 0.00 | 84 | 1014.3 |
| 20260502070049 | 51 | 0 | 0.0 | 3.0 | 0.00 | 0.02 | 0.00 | 84 | 1014.3 |
| 20260502065531 | 51 | 262 | 0.0 | 3.0 | 0.00 | 0.02 | 0.00 | 84 | 1014.0 |
| 20260502065031 | 51 | 274 | 1.0 | 3.0 | 0.00 | 0.02 | 0.00 | 84 | 1014.2 |
| 20260502064543 | 51 | 0 | 0.0 | 3.0 | 0.00 | 0.02 | 0.00 | 84 | 1014.1 |
| 20260502064031 | 51 | 263 | 0.0 | 3.0 | 0.00 | 0.02 | 0.00 | 84 | 1014.2 |
| 20260502063531 | 51 | 270 | 0.0 | 2.0 | 0.00 | 0.02 | 0.00 | 84 | 1014.2 |
| 20260502063042 | 51 | 260 | 0.0 | 3.0 | 0.00 | 0.02 | 0.00 | 84 | 1014.3 |
| 20260502062530 | 51 | 248 | 0.0 | 3.0 | 0.00 | 0.02 | 0.00 | 84 | 1014.4 |
| 20260502062031 | 51 | 249 | 1.0 | 3.0 | 0.00 | 0.02 | 0.00 | 84 | 1014.3 |
| 20260502061537 | 51 | 240 | 1.0 | 3.0 | 0.00 | 0.02 | 0.00 | 84 | 1014.3 |
| 20260502061031 | 51 | 0 | 0.0 | 2.0 | 0.00 | 0.02 | 0.00 | 84 | 1014.3 |
| 20260502060531 | 51 | 0 | 0.0 | 1.0 | 0.00 | 0.02 | 0.00 | 84 | 1014.3 |
| 20260502060044 | 51 | 0 | 0.0 | 2.0 | 0.00 | 0.02 | 0.00 | 84 | 1014.3 |
| 20260502055532 | 51 | 266 | 1.0 | 2.0 | 0.00 | 0.02 | 0.00 | 84 | 1014.2 |
| 20260502055032 | 51 | 289 | 0.0 | 2.0 | 0.00 | 0.02 | 0.00 | 84 | 1014.3 |
| 20260502054544 | 51 | 266 | 0.0 | 2.0 | 0.00 | 0.02 | 0.00 | 84 | 1014.2 |
| 20260502054036 | 51 | 278 | 0.0 | 2.0 | 0.00 | 0.02 | 0.00 | 84 | 1014.3 |
| 20260502053532 | 51 | 195 | 0.0 | 2.0 | 0.00 | 0.02 | 0.00 | 84 | 1014.3 |
| 20260502053039 | 51 | 0 | 0.0 | 2.0 | 0.00 | 0.02 | 0.00 | 84 | 1014.3 |
| 20260502052532 | 50 | 273 | 0.0 | 2.0 | 0.00 | 0.02 | 0.00 | 84 | 1014.2 |
| 20260502052035 | 50 | 0 | 0.0 | 0.0 | 0.00 | 0.02 | 0.00 | 84 | 1014.2 |
| 20260502051536 | 50 | 160 | 0.0 | 0.0 | 0.00 | 0.02 | 0.00 | 84 | 1014.1 |
| 20260502051031 | 50 | 0 | 0.0 | 0.0 | 0.00 | 0.02 | 0.00 | 84 | 1014.1 |
| 20260502050535 | 50 | 0 | 0.0 | 0.0 | 0.00 | 0.02 | 0.00 | 84 | 1014.2 |
| 20260502050047 | 50 | 0 | 0.0 | 0.0 | 0.00 | 0.02 | 0.00 | 84 | 1014.1 |
| 20260502045532 | 50 | 0 | 0.0 | 0.0 | 0.00 | 0.02 | 0.00 | 84 | 1014.2 |
| 20260502045032 | 50 | 0 | 0.0 | 0.0 | 0.00 | 0.02 | 0.00 | 84 | 1014.1 |
| 20260502044535 | 50 | 0 | 0.0 | 0.0 | 0.00 | 0.02 | 0.00 | 84 | 1014.1 |
| 20260502044032 | 50 | 0 | 0.0 | 1.0 | 0.00 | 0.02 | 0.00 | 84 | 1014.2 |
| 20260502043531 | 50 | 0 | 0.0 | 1.0 | 0.00 | 0.02 | 0.00 | 84 | 1014.1 |
| 20260502043042 | 50 | 160 | 0.0 | 0.0 | 0.00 | 0.02 | 0.00 | 84 | 1014.1 |
| 20260502042532 | 50 | 0 | 0.0 | 0.0 | 0.00 | 0.02 | 0.00 | 84 | 1014.1 |
| 20260502042032 | 50 | 0 | 0.0 | 0.0 | 0.00 | 0.02 | 0.00 | 84 | 1014.1 |
| 20260502041543 | 50 | 0 | 0.0 | 0.0 | 0.00 | 0.02 | 0.00 | 84 | 1014.0 |
| 20260502041032 | 50 | 0 | 0.0 | 0.0 | 0.00 | 0.02 | 0.00 | 84 | 1014.2 |
| 20260502040533 | 50 | 0 | 0.0 | 1.0 | 0.00 | 0.02 | 0.00 | 84 | 1014.1 |
| 20260502040037 | 50 | 0 | 0.0 | 1.0 | 0.00 | 0.02 | 0.00 | 84 | 1014.2 |
| 20260502035532 | 50 | 0 | 0.0 | 1.0 | 0.00 | 0.02 | 0.00 | 84 | 1014.2 |
| 20260502035032 | 50 | 257 | 0.0 | 1.0 | 0.00 | 0.02 | 0.00 | 84 | 1014.3 |
| 20260502034537 | 50 | 297 | 0.0 | 1.0 | 0.00 | 0.02 | 0.00 | 84 | 1014.3 |
| 20260502034032 | 50 | 0 | 0.0 | 1.0 | 0.00 | 0.02 | 0.00 | 84 | 1014.2 |
| 20260502033532 | 50 | 0 | 0.0 | 1.0 | 0.00 | 0.02 | 0.00 | 84 | 1014.2 |
| 20260502033046 | 50 | 0 | 0.0 | 1.0 | 0.00 | 0.02 | 0.00 | 84 | 1014.2 |
| 20260502032531 | 50 | 0 | 0.0 | 1.0 | 0.00 | 0.02 | 0.00 | 84 | 1014.3 |
| 20260502032031 | 50 | 0 | 0.0 | 1.0 | 0.00 | 0.02 | 0.00 | 84 | 1014.2 |
| 20260502031543 | 50 | 0 | 0.0 | 1.0 | 0.00 | 0.02 | 0.00 | 84 | 1014.4 |
| 20260502031032 | 50 | 0 | 0.0 | 0.0 | 0.00 | 0.02 | 0.00 | 84 | 1014.4 |
| 20260502030531 | 50 | 0 | 0.0 | 1.0 | 0.00 | 0.02 | 0.00 | 84 | 1014.4 |
| 20260502030042 | 50 | 0 | 0.0 | 1.0 | 0.00 | 0.02 | 0.00 | 83 | 1014.5 |
| 20260502025532 | 50 | 0 | 0.0 | 1.0 | 0.00 | 0.02 | 0.00 | 83 | 1014.4 |
| 20260502025032 | 50 | 0 | 0.0 | 1.0 | 0.00 | 0.02 | 0.00 | 83 | 1014.5 |
| 20260502024540 | 50 | 0 | 0.0 | 1.0 | 0.00 | 0.02 | 0.00 | 83 | 1014.6 |
| 20260502024032 | 50 | 0 | 0.0 | 2.0 | 0.00 | 0.02 | 0.00 | 83 | 1014.6 |
| 20260502023532 | 50 | 0 | 0.0 | 2.0 | 0.00 | 0.02 | 0.00 | 83 | 1014.7 |
| 20260502023037 | 51 | 0 | 0.0 | 2.0 | 0.00 | 0.02 | 0.00 | 83 | 1014.7 |
| 20260502022532 | 51 | 0 | 0.0 | 1.0 | 0.00 | 0.02 | 0.00 | 83 | 1014.8 |
| 20260502022033 | 51 | 0 | 0.0 | 0.0 | 0.00 | 0.02 | 0.00 | 83 | 1014.7 |
| 20260502021536 | 51 | 0 | 0.0 | 0.0 | 0.00 | 0.02 | 0.00 | 83 | 1014.8 |
| 20260502021031 | 51 | 0 | 0.0 | 0.0 | 0.00 | 0.02 | 0.00 | 83 | 1014.7 |
| 20260502020531 | 51 | 0 | 0.0 | 1.0 | 0.00 | 0.02 | 0.00 | 83 | 1014.8 |
| 20260502020035 | 51 | 0 | 0.0 | 1.0 | 0.00 | 0.02 | 0.00 | 83 | 1014.9 |
| 20260502015535 | 51 | 0 | 0.0 | 0.0 | 0.00 | 0.02 | 0.00 | 83 | 1014.9 |
| 20260502015032 | 51 | 0 | 0.0 | 1.0 | 0.00 | 0.02 | 0.00 | 82 | 1014.9 |
| 20260502014547 | 51 | 0 | 0.0 | 2.0 | 0.00 | 0.02 | 0.00 | 82 | 1015.1 |
| 20260502014033 | 51 | 0 | 0.0 | 2.0 | 0.00 | 0.02 | 0.00 | 82 | 1015.2 |
| 20260502013532 | 51 | 0 | 0.0 | 2.0 | 0.00 | 0.02 | 0.00 | 82 | 1015.3 |
| 20260502013046 | 51 | 239 | 1.0 | 2.0 | 0.00 | 0.02 | 0.00 | 82 | 1015.3 |
| 20260502012532 | 51 | 264 | 0.0 | 1.0 | 0.00 | 0.02 | 0.00 | 82 | 1015.2 |
| 20260502012032 | 52 | 259 | 0.0 | 1.0 | 0.00 | 0.02 | 0.00 | 82 | 1015.3 |
| 20260502011539 | 51 | 0 | 0.0 | 1.0 | 0.00 | 0.02 | 0.00 | 82 | 1015.4 |
| 20260502011032 | 51 | 0 | 0.0 | 1.0 | 0.00 | 0.02 | 0.00 | 82 | 1015.5 |
| 20260502010531 | 52 | 0 | 0.0 | 2.0 | 0.00 | 0.02 | 0.00 | 82 | 1015.5 |
| 20260502010052 | 52 | 4 | 0.0 | 2.0 | 0.00 | 0.02 | 0.00 | 82 | 1015.6 |
| 20260502005532 | 52 | 4 | 0.0 | 2.0 | 0.00 | 0.02 | 0.00 | 82 | 1015.6 |
| 20260502005032 | 52 | 0 | 0.0 | 2.0 | 0.00 | 0.02 | 0.00 | 82 | 1015.5 |
| 20260502004552 | 52 | 28 | 0.0 | 2.0 | 0.00 | 0.02 | 0.00 | 82 | 1015.6 |
| 20260502004031 | 52 | 0 | 0.0 | 1.0 | 0.00 | 0.02 | 0.00 | 82 | 1015.7 |
| 20260502003531 | 52 | 260 | 0.0 | 2.0 | 0.00 | 0.02 | 0.00 | 82 | 1015.6 |
| 20260502003035 | 52 | 0 | 0.0 | 2.0 | 0.00 | 0.02 | 0.00 | 81 | 1015.8 |
| 20260502002531 | 52 | 259 | 0.0 | 2.0 | 0.00 | 0.02 | 0.00 | 81 | 1015.7 |
| 20260502002031 | 52 | 271 | 0.0 | 2.0 | 0.00 | 0.02 | 0.00 | 81 | 1015.7 |
| 20260502001543 | 52 | 237 | 0.0 | 2.0 | 0.00 | 0.02 | 0.00 | 81 | 1015.6 |
| 20260502001031 | 52 | 276 | 0.0 | 2.0 | 0.00 | 0.02 | 0.00 | 81 | 1015.8 |
| 20260502000532 | 52 | 0 | 0.0 | 2.0 | 0.00 | 0.02 | 0.00 | 81 | 1015.7 |
| 20260502000051 | 53 | 250 | 0.0 | 2.0 | 0.00 | 0.02 | 0.00 | 81 | 1015.8 |
| 20260501235531 | 53 | 250 | 0.0 | 2.0 | 0.00 | 0.02 | 0.00 | 81 | 1015.9 |
| 20260501235031 | 53 | 276 | 1.0 | 2.0 | 0.00 | 0.02 | 0.00 | 81 | 1015.8 |
| 20260501234538 | 52 | 79 | 0.0 | 1.0 | 0.00 | 0.02 | 0.00 | 81 | 1015.9 |
| 20260501234032 | 52 | 0 | 0.0 | 2.0 | 0.00 | 0.02 | 0.00 | 81 | 1015.9 |
| 20260501233532 | 52 | 78 | 1.0 | 2.0 | 0.00 | 0.02 | 0.00 | 81 | 1016.0 |
| 20260501233043 | 52 | 143 | 0.0 | 2.0 | 0.00 | 0.02 | 0.00 | 81 | 1015.9 |
| 20260501232531 | 52 | 80 | 1.0 | 3.0 | 0.00 | 0.02 | 0.00 | 81 | 1015.9 |
| 20260501232031 | 52 | 279 | 1.0 | 3.0 | 0.00 | 0.02 | 0.00 | 81 | 1016.0 |
| 20260501231543 | 53 | 0 | 0.0 | 3.0 | 0.00 | 0.02 | 0.00 | 81 | 1016.0 |
| 20260501231031 | 53 | 20 | 0.0 | 3.0 | 0.00 | 0.02 | 0.00 | 80 | 1016.0 |
| 20260501230531 | 53 | 68 | 0.0 | 5.0 | 0.00 | 0.02 | 0.00 | 80 | 1015.8 |
| 20260501230043 | 53 | 18 | 1.0 | 5.0 | 0.00 | 0.02 | 0.00 | 79 | 1015.9 |
| 20260501225531 | 54 | 7 | 1.0 | 5.0 | 0.00 | 0.02 | 0.02 | 79 | 1015.8 |
| 20260501225031 | 54 | 283 | 1.0 | 6.0 | 0.00 | 0.02 | 0.02 | 79 | 1015.9 |
| 20260501224542 | 53 | 231 | 0.0 | 6.0 | 0.00 | 0.02 | 0.02 | 79 | 1015.9 |
| 20260501224031 | 53 | 0 | 1.0 | 4.0 | 0.00 | 0.02 | 0.02 | 80 | 1015.9 |
| 20260501223532 | 53 | 327 | 0.0 | 2.0 | 0.00 | 0.02 | 0.02 | 80 | 1015.8 |
| 20260501223039 | 53 | 217 | 0.0 | 2.0 | 0.00 | 0.02 | 0.02 | 80 | 1016.0 |
| 20260501222532 | 53 | 317 | 0.0 | 2.0 | 0.00 | 0.02 | 0.02 | 80 | 1015.9 |
| 20260501222032 | 52 | 262 | 0.0 | 2.0 | 0.00 | 0.02 | 0.02 | 81 | 1016.0 |
| 20260501221544 | 52 | 265 | 0.0 | 2.0 | 0.00 | 0.02 | 0.02 | 80 | 1015.9 |
| 20260501221033 | 53 | 0 | 0.0 | 3.0 | 0.00 | 0.02 | 0.02 | 81 | 1016.0 |
| 20260501220531 | 53 | 77 | 0.0 | 3.0 | 0.00 | 0.02 | 0.02 | 81 | 1016.0 |
| 20260501220052 | 52 | 98 | 0.0 | 3.0 | 0.00 | 0.02 | 0.02 | 81 | 1016.0 |
| 20260501215532 | 52 | 199 | 0.0 | 1.0 | 0.00 | 0.02 | 0.02 | 81 | 1016.1 |
| 20260501215031 | 53 | 199 | 0.0 | 1.0 | 0.00 | 0.02 | 0.02 | 81 | 1016.0 |
| 20260501214543 | 53 | 0 | 0.0 | 1.0 | 0.00 | 0.02 | 0.02 | 81 | 1015.9 |
| 20260501214031 | 53 | 0 | 0.0 | 2.0 | 0.00 | 0.02 | 0.02 | 81 | 1016.1 |
| 20260501213531 | 53 | 0 | 0.0 | 3.0 | 0.00 | 0.02 | 0.02 | 82 | 1016.2 |
| 20260501213102 | 53 | 350 | 0.0 | 3.0 | 0.00 | 0.02 | 0.02 | 82 | 1016.2 |
| 20260501212531 | 53 | 281 | 0.0 | 3.0 | 0.00 | 0.02 | 0.02 | 82 | 1016.2 |
| 20260501212031 | 53 | 11 | 0.0 | 3.0 | 0.00 | 0.02 | 0.02 | 82 | 1016.2 |
| 20260501211551 | 53 | 0 | 0.0 | 1.0 | 0.00 | 0.02 | 0.02 | 82 | 1016.4 |
| 20260501211034 | 53 | 0 | 0.0 | 1.0 | 0.00 | 0.02 | 0.02 | 81 | 1016.3 |
| 20260501210531 | 53 | 0 | 0.0 | 1.0 | 0.00 | 0.02 | 0.02 | 81 | 1016.3 |
| 20260501210043 | 53 | 251 | 0.0 | 3.0 | 0.00 | 0.02 | 0.02 | 81 | 1016.4 |
| 20260501205532 | 53 | 251 | 0.0 | 3.0 | 0.00 | 0.02 | 0.02 | 81 | 1016.3 |
| 20260501205035 | 53 | 295 | 0.0 | 4.0 | 0.00 | 0.02 | 0.02 | 81 | 1016.4 |
| 20260501204551 | 54 | 273 | 0.0 | 4.0 | 0.00 | 0.02 | 0.02 | 81 | 1016.6 |
| 20260501204031 | 54 | 297 | 1.0 | 2.0 | 0.00 | 0.02 | 0.02 | 80 | 1016.6 |
| 20260501203531 | 54 | 265 | 1.0 | 2.0 | 0.00 | 0.02 | 0.02 | 80 | 1016.5 |
| 20260501203048 | 54 | 309 | 0.0 | 3.0 | 0.00 | 0.02 | 0.02 | 80 | 1016.5 |
| 20260501202531 | 54 | 0 | 0.0 | 3.0 | 0.00 | 0.02 | 0.02 | 80 | 1016.5 |
| 20260501202031 | 54 | 0 | 0.0 | 2.0 | 0.00 | 0.02 | 0.02 | 80 | 1016.6 |
| 20260501201543 | 55 | 250 | 0.0 | 3.0 | 0.00 | 0.02 | 0.02 | 79 | 1016.5 |
| 20260501201031 | 55 | 315 | 0.0 | 5.0 | 0.00 | 0.02 | 0.02 | 79 | 1016.4 |
| 20260501200531 | 55 | 266 | 0.0 | 5.0 | 0.00 | 0.02 | 0.02 | 79 | 1016.5 |
| 20260501200040 | 55 | 293 | 1.0 | 4.0 | 0.00 | 0.02 | 0.02 | 78 | 1016.5 |
| 20260501195532 | 56 | 247 | 1.0 | 4.0 | 0.00 | 0.02 | 0.02 | 78 | 1016.5 |
| 20260501195032 | 56 | 276 | 1.0 | 4.0 | 0.00 | 0.02 | 0.02 | 78 | 1016.5 |
| 20260501194545 | 56 | 296 | 2.0 | 4.0 | 0.00 | 0.02 | 0.02 | 77 | 1016.6 |
| 20260501194030 | 57 | 278 | 1.0 | 3.0 | 0.00 | 0.02 | 0.02 | 77 | 1016.5 |
| 20260501193530 | 57 | 264 | 0.0 | 2.0 | 0.00 | 0.02 | 0.02 | 76 | 1016.4 |
| 20260501193037 | 57 | 229 | 0.0 | 2.0 | 0.00 | 0.02 | 0.02 | 76 | 1016.5 |
| 20260501192532 | 57 | 0 | 0.0 | 2.0 | 0.00 | 0.02 | 0.02 | 76 | 1016.4 |
| 20260501192031 | 57 | 276 | 1.0 | 2.0 | 0.00 | 0.02 | 0.02 | 75 | 1016.4 |
| 20260501191543 | 58 | 339 | 1.0 | 3.0 | 0.00 | 0.02 | 0.02 | 74 | 1016.4 |
| 20260501191032 | 58 | 260 | 1.0 | 3.0 | 0.00 | 0.02 | 0.02 | 74 | 1016.4 |
| 20260501190531 | 58 | 280 | 1.0 | 3.0 | 0.00 | 0.02 | 0.02 | 73 | 1016.4 |
| 20260501190043 | 58 | 252 | 0.0 | 5.0 | 0.00 | 0.02 | 0.02 | 73 | 1016.4 |
| 20260501185531 | 59 | 181 | 1.0 | 6.0 | 0.00 | 0.02 | 0.02 | 72 | 1016.5 |
| 20260501185032 | 59 | 289 | 1.0 | 6.0 | 0.00 | 0.02 | 0.02 | 71 | 1016.5 |
| 20260501184543 | 59 | 311 | 3.0 | 6.0 | 0.00 | 0.02 | 0.02 | 71 | 1016.4 |
| 20260501184031 | 59 | 290 | 2.0 | 4.0 | 0.00 | 0.02 | 0.02 | 69 | 1016.4 |
| 20260501183532 | 60 | 269 | 2.0 | 3.0 | 0.00 | 0.02 | 0.02 | 67 | 1016.3 |
| 20260501183038 | 60 | 276 | 1.0 | 3.0 | 0.00 | 0.02 | 0.02 | 66 | 1016.4 |
| 20260501182531 | 60 | 297 | 1.0 | 3.0 | 0.00 | 0.02 | 0.02 | 65 | 1016.2 |
| 20260501182031 | 60 | 281 | 0.0 | 2.0 | 0.00 | 0.02 | 0.02 | 65 | 1016.3 |
| 20260501181536 | 60 | 287 | 0.0 | 4.0 | 0.00 | 0.02 | 0.02 | 63 | 1016.2 |
| 20260501181030 | 60 | 0 | 1.0 | 4.0 | 0.00 | 0.02 | 0.02 | 63 | 1016.2 |
| 20260501180531 | 61 | 281 | 1.0 | 5.0 | 0.00 | 0.02 | 0.02 | 62 | 1016.3 |
| 20260501180043 | 61 | 285 | 1.0 | 5.0 | 0.00 | 0.02 | 0.02 | 62 | 1016.3 |
| 20260501175532 | 61 | 297 | 1.0 | 5.0 | 0.00 | 0.02 | 0.02 | 61 | 1016.3 |
| 20260501175033 | 62 | 263 | 2.0 | 4.0 | 0.00 | 0.02 | 0.02 | 61 | 1016.4 |
| 20260501174601 | 62 | 280 | 1.0 | 6.0 | 0.00 | 0.02 | 0.02 | 61 | 1016.2 |
| 20260501174031 | 62 | 257 | 2.0 | 6.0 | 0.00 | 0.02 | 0.02 | 60 | 1016.2 |
| 20260501173531 | 62 | 285 | 2.0 | 6.0 | 0.00 | 0.02 | 0.02 | 60 | 1016.1 |
| 20260501173052 | 62 | 304 | 2.0 | 4.0 | 0.00 | 0.02 | 0.02 | 60 | 1016.2 |
| 20260501172533 | 62 | 273 | 1.0 | 3.0 | 0.00 | 0.02 | 0.02 | 60 | 1016.2 |
| 20260501172030 | 63 | 91 | 0.0 | 4.0 | 0.00 | 0.02 | 0.02 | 60 | 1016.2 |
| 20260501171537 | 63 | 132 | 0.0 | 4.0 | 0.00 | 0.02 | 0.02 | 61 | 1016.2 |